Location: Fort Worth, Tx
(32.7431°N, 97.3695°W)
Time: 02:23:24
(UTC-05:00)

N. Korean satellite - Visible Passes

Search period start: 06 December 2022 00:00
Search period end: 16 December 2022 00:00
Orbit: 421 x 453 km, 97.3° (Epoch: 04 December)

Date Brightness Start Highest point End Pass type
(mag) Time Alt. Az. Time Alt. Az. Time Alt. Az.
06 Dec 6.8 06:34:20 10° NNE 06:37:41 61° E 06:40:58 10° S visible
07 Dec 9.5 05:56:31 10° NE 05:58:37 16° E 06:00:41 10° SE visible
07 Dec 7.8 07:28:34 10° NNW 07:31:00 19° WNW 07:33:24 10° WSW visible
08 Dec 6.2 06:48:50 10° N 06:52:11 75° WNW 06:55:29 10° SSW visible
09 Dec 8.7 06:10:19 10° NE 06:13:08 24° E 06:15:54 10° SSE visible
09 Dec 8.3 07:43:58 10° NW 07:45:19 12° WNW 07:46:41 10° W visible
10 Dec 6.6 07:03:20 10° N 07:06:31 42° WNW 07:09:40 10° SSW visible
10 Dec 9.8 19:01:51 10° SW 19:03:37 14° W 19:05:26 10° WNW visible
11 Dec 7.7 06:24:19 10° NNE 06:27:29 40° E 06:30:36 10° S visible
12 Dec 9.9 05:47:22 10° E 05:48:12 11° E 05:49:01 10° ESE visible
12 Dec 7.3 07:17:52 10° NNW 07:20:42 26° WNW 07:23:30 10° SW visible
13 Dec 6.5 06:38:21 10° NNE 06:41:40 71° E 06:44:56 10° S visible
14 Dec 9.3 06:00:09 10° NE 06:02:23 17° E 06:04:37 10° SE visible
14 Dec 7.9 07:32:32 10° NNW 07:34:43 17° WNW 07:36:53 10° WSW visible
15 Dec 6.2 06:53:20 18° N 06:55:42 66° WNW 06:58:56 10° SSW visible
15 Dec 9.5 18:50:07 10° SW 18:52:39 20° W 18:55:12 10° NW visible
